Seattle Boeing, WA
on Thursday, February 7, 2013

Thursday
Previous Day Next Day
Daily Summary
 ActualAverage (KSEA)Record (KSEA)
Temperature
Mean Temperature °F 43°F  
Max Temperature 50°F 49°F 66°F (1963)
Min Temperature 39°F 37°F 20°F (1989)
Degree Days
Heating Degree Days 19 22  
Month to date heating degree days 154  
Since 1 July heating degree days 2803  
Cooling Degree Days 0 0  
Month to date cooling degree days 0  
Year to date cooling degree days 0  
Moisture
Dew Point 35°F   
Average Humidity 66    
Maximum Humidity 82    
Minimum Humidity 46    
Precipitation
Precipitation 0.09 in 0.14 in 2.58 in (1955)
Month to date precipitation 0.94  
Year to date precipitation 6.51  
Snow
Snow 0.00 in in T in (1994)
Month to date snowfall  
Since 1 July snowfall  
Snow Depth in   
Wind
Wind Speed 7 mph   
Max Wind Speed 20 mph   
Max Gust Speed 28 mph   
Visibility 10 miles   
Events Rain   

Key: T is trace of precipitation, MM is missing value
Source: NWS Daily Summary
Time(PST)TemperatureDew PointHumidity Pressure Visibility Wind DirectionWind SpeedGust SpeedPrecipitationEvents Conditions
12:53 AM 48.0°F 37.9°F 68% 29.83 in 10.0 miles SW 6.9 mph - 0.02 in Rain Light Rain
1:53 AM 46.0°F 37.9°F 73% 29.86 in 10.0 miles South 6.9 mph - 0.07 in Rain Light Rain
2:53 AM 45.0°F 37.0°F 74% 29.89 in 10.0 miles SSE 12.7 mph - N/A   Overcast
3:53 AM 45.0°F 35.1°F 68% 29.90 in 10.0 miles South 19.6 mph 27.6 mph 0.00 in   Overcast
4:53 AM 45.0°F 35.1°F 68% 29.93 in 10.0 miles South 11.5 mph 19.6 mph N/A   Overcast
5:53 AM 45.0°F 35.1°F 68% 29.95 in 10.0 miles South 10.4 mph 18.4 mph N/A   Mostly Cloudy
6:53 AM 44.1°F 35.1°F 71% 29.96 in 10.0 miles South 6.9 mph - N/A   Mostly Cloudy
7:53 AM 44.1°F 36.0°F 73% 29.99 in 10.0 miles SSE 8.1 mph - N/A   Mostly Cloudy
8:53 AM 44.1°F 36.0°F 73% 30.01 in 10.0 miles SSE 10.4 mph - N/A   Mostly Cloudy
9:53 AM 45.0°F 36.0°F 71% 30.02 in 10.0 miles SSE 10.4 mph - N/A   Mostly Cloudy
10:53 AM 46.9°F 36.0°F 66% 30.04 in 10.0 miles SW 8.1 mph - N/A   Mostly Cloudy
11:53 AM 48.0°F 35.1°F 61% 30.04 in 10.0 miles SW 9.2 mph - N/A   Mostly Cloudy
12:53 PM 48.9°F 34.0°F 56% 30.03 in 10.0 miles Variable 4.6 mph - N/A   Clear
1:53 PM 48.9°F 33.1°F 54% 30.03 in 10.0 miles SSW 5.8 mph - N/A   Scattered Clouds
2:53 PM 50.0°F 32.0°F 50% 30.04 in 10.0 miles Calm Calm - N/A   Clear
3:53 PM 50.0°F 30.0°F 46% 30.04 in 10.0 miles Variable 5.8 mph - N/A   Mostly Cloudy
4:53 PM 48.9°F 32.0°F 52% 30.06 in 10.0 miles NW 4.6 mph - N/A   Scattered Clouds
5:53 PM 46.9°F 32.0°F 56% 30.08 in 10.0 miles NW 3.5 mph - N/A   Clear
6:53 PM 45.0°F 33.1°F 63% 30.10 in 10.0 miles Calm Calm - N/A   Clear
7:53 PM 44.1°F 34.0°F 68% 30.12 in 10.0 miles Calm Calm - N/A   Clear
8:53 PM 43.0°F 35.1°F 74% 30.14 in 10.0 miles Calm Calm - N/A   Clear
9:53 PM 43.0°F 36.0°F 76% 30.16 in 10.0 miles Calm Calm - N/A   Clear
10:53 PM 42.1°F 35.1°F 76% 30.18 in 10.0 miles Calm Calm - N/A   Clear
11:53 PM 39.0°F 34.0°F 82% 30.19 in 10.0 miles Calm Calm - N/A   Clear
Moon Phase
Feb. 07 Feb. 10 Feb. 17 Feb. 25 Mar. 04
Sunrise:07:26 AM (PST) Moon Rise:05:17 AM (PST)2/7
Sunset:05:20 PM (PST) Moon Set:02:45 PM (PST)2/7

Copyright © 2014 The Weather Underground, Inc.